EW7149 Weather Reports


Display with metric or nautical units.
time (UTC)temp
F
wind
direction
speed
MPH
gust
MPH
rain 1hr
in
rain 24hr
in
rain mn
in
humidity
%
barometer
mb
20260505033236 64 158 0.0 6.0 0.00 0.00 0.00 55 1009.8
20260505032720 64 161 0.0 4.0 0.00 0.00 0.00 54 1009.8
20260505032206 64 169 0.0 1.0 0.00 0.00 0.00 54 1009.8
20260505031716 64 162 0.0 7.0 0.00 0.00 0.00 54 1009.8
20260505031200 64 153 0.0 3.0 0.00 0.00 0.00 54 1009.8
20260505030710 64 173 0.0 1.0 0.00 0.00 0.00 54 1009.8
20260505030213 64 161 0.0 0.0 0.00 0.00 0.00 54 1009.8
20260505025706 64 147 0.0 0.0 0.00 0.00 0.00 54 1009.8
20260505025215 64 157 0.0 0.0 0.00 0.00 0.00 53 1009.8
20260505024722 65 155 0.0 0.0 0.00 0.00 0.00 53 1009.8
20260505024204 65 175 0.0 0.0 0.00 0.00 0.00 53 1010.0
20260505023705 65 149 0.0 0.0 0.00 0.00 0.00 52 1009.9
20260505023151 65 148 0.0 0.0 0.00 0.00 0.00 52 1009.9
20260505022637 65 168 0.0 0.0 0.00 0.00 0.00 52 1009.9
20260505022130 65 158 0.0 0.0 0.00 0.00 0.00 51 1009.9
20260505021630 66 157 0.0 0.0 0.00 0.00 0.00 51 1009.9
20260505021132 66 154 0.0 0.0 0.00 0.00 0.00 50 1009.8
20260505020623 66 171 0.0 0.0 0.00 0.00 0.00 50 1009.8
20260505020132 66 172 0.0 0.0 0.00 0.00 0.00 50 1009.8
20260505015628 66 151 0.0 0.0 0.00 0.00 0.00 50 1009.7
20260505015118 66 170 0.0 0.0 0.00 0.00 0.00 49 1009.7
20260505014558 66 158 0.0 0.0 0.00 0.00 0.00 49 1009.8
20260505014105 67 156 0.0 0.0 0.00 0.00 0.00 49 1009.8
20260505013548 67 156 0.0 0.0 0.00 0.00 0.00 49 1009.8
20260505013041 67 172 0.0 0.0 0.00 0.00 0.00 48 1009.7
20260505012525 67 163 0.0 0.0 0.00 0.00 0.00 48 1009.5
20260505012029 67 150 0.0 0.0 0.00 0.00 0.00 48 1009.4
20260505011511 67 165 0.0 0.0 0.00 0.00 0.00 47 1009.4
20260505011011 67 163 0.0 0.0 0.00 0.00 0.00 47 1009.4
20260505010512 67 162 0.0 0.0 0.00 0.00 0.00 47 1009.3
20260505005953 68 154 0.0 0.0 0.00 0.00 0.00 46 1009.2
20260505004820 68 149 0.0 0.0 0.00 0.00 0.00 46 1009.1
20260505004309 68 157 0.0 0.0 0.00 0.00 0.00 46 1009.2
20260505003818 68 137 0.0 0.0 0.00 0.00 0.00 45 1009.2
20260505003317 68 158 0.0 0.0 0.00 0.00 0.00 45 1009.1
20260505002805 69 155 0.0 0.0 0.00 0.00 0.00 45 1009.2
20260505002307 69 159 0.0 0.0 0.00 0.00 0.00 44 1009.2
20260505001816 69 160 0.0 0.0 0.00 0.00 0.00 44 1009.1
20260505000707 70 151 0.0 0.0 0.00 0.00 0.00 43 1009.1
20260505000156 70 163 0.0 0.0 0.00 0.00 0.00 42 1009.1
20260504235652 70 140 0.0 0.0 0.00 0.00 0.00 42 1009.0
20260504235148 71 136 0.0 0.0 0.00 0.00 0.00 41 1009.0
20260504234658 71 180 0.0 0.0 0.00 0.00 0.00 41 1008.9
20260504234207 71 141 0.0 0.0 0.00 0.00 0.00 40 1008.9
20260504233702 71 150 0.0 5.0 0.00 0.00 0.00 39 1008.9
20260504233144 72 163 0.0 6.0 0.00 0.00 0.00 39 1008.8
20260504232634 72 156 0.0 8.0 0.00 0.00 0.00 39 1008.8
20260504231511 73 174 0.0 2.0 0.00 0.00 0.00 37 1008.8
20260504231011 74 171 0.0 0.0 0.00 0.00 0.00 37 1008.9
20260504230505 74 124 0.0 2.0 0.00 0.00 0.00 37 1008.8
20260504230008 74 153 0.0 1.0 0.00 0.00 0.00 36 1008.9
20260504225502 74 145 0.0 0.0 0.00 0.00 0.00 36 1009.0
20260504225005 74 187 0.0 2.0 0.00 0.00 0.00 36 1009.0
20260504224508 74 165 0.0 3.0 0.00 0.00 0.00 36 1009.0
20260504223956 74 156 0.0 6.0 0.00 0.00 0.00 36 1008.9
20260504223458 75 178 0.0 1.0 0.00 0.00 0.00 35 1008.9
20260504222955 74 152 0.0 0.0 0.00 0.00 0.00 36 1008.9
20260504222458 74 162 0.0 8.0 0.00 0.00 0.00 36 1008.9
20260504221953 74 145 0.0 8.0 0.00 0.00 0.00 35 1008.9
20260504221444 74 145 0.0 3.0 0.00 0.00 0.00 36 1008.8
20260504220925 74 161 0.0 3.0 0.00 0.00 0.00 37 1008.9
20260504220419 74 157 0.0 8.0 0.00 0.00 0.00 36 1009.0
20260504215913 74 181 0.0 8.0 0.00 0.00 0.00 34 1009.0
20260504215406 75 159 0.0 8.0 0.00 0.00 0.00 34 1009.0
20260504214851 76 169 0.0 6.0 0.00 0.00 0.00 34 1009.0
20260504214353 76 150 0.0 8.0 0.00 0.00 0.00 34 1009.0
20260504213846 76 187 0.0 2.0 0.00 0.00 0.00 34 1009.0
20260504212124 76 172 0.0 0.0 0.00 0.00 0.00 34 1009.0
20260504211619 76 123 0.0 8.0 0.00 0.00 0.00 35 1009.0
20260504211125 76 234 0.0 5.0 0.00 0.00 0.00 34 1009.0
20260504210616 76 142 0.0 5.0 0.00 0.00 0.00 34 1009.1
20260504210112 76 313 0.0 15.0 0.00 0.00 0.00 35 1009.2
20260504205604 76 157 0.0 15.0 0.00 0.00 0.00 35 1009.2
20260504205054 76 154 0.0 8.0 0.00 0.00 0.00 35 1009.2
20260504204548 76 138 0.0 8.0 0.00 0.00 0.00 34 1009.2
20260504204035 76 157 0.0 8.0 0.00 0.00 0.00 36 1009.1
20260504203527 75 306 0.0 2.0 0.00 0.00 0.00 37 1009.1
20260504203016 75 336 0.0 0.0 0.00 0.00 0.00 36 1009.2
20260504202524 75 143 0.0 10.0 0.00 0.00 0.00 35 1009.3
20260504202018 75 274 0.0 5.0 0.00 0.00 0.00 35 1009.4
20260504200855 75 161 0.0 3.0 0.00 0.00 0.00 37 1009.6
20260504200347 75 123 0.0 10.0 0.00 0.00 0.00 34 1009.7
20260504195840 75 151 0.0 0.0 0.00 0.00 0.00 36 1009.8
20260504194659 74 176 0.0 6.0 0.00 0.00 0.00 36 1009.9
20260504194152 74 153 0.0 6.0 0.00 0.00 0.00 36 1010.1
20260504193700 74 153 0.0 13.0 0.00 0.00 0.00 35 1010.1
20260504193204 74 283 0.0 0.0 0.00 0.00 0.00 37 1010.2
20260504192646 74 243 0.0 10.0 0.00 0.00 0.00 35 1010.4
20260504192149 74 230 1.0 10.0 0.00 0.00 0.00 36 1010.6
20260504191650 74 167 1.0 11.0 0.00 0.00 0.00 36 1010.5
20260504191145 74 136 0.0 8.0 0.00 0.00 0.00 36 1010.6
20260504190641 73 155 0.0 5.0 0.00 0.00 0.00 38 1010.7
20260504190148 73 282 0.0 2.0 0.00 0.00 0.00 38 1010.9
20260504183158 72 153 1.0 14.0 0.00 0.00 0.00 36 1011.4
20260504182650 72 144 1.0 9.0 0.00 0.00 0.00 37 1011.3
20260504181532 72 293 1.0 10.0 0.00 0.00 0.00 37 1011.5
20260504181029 72 178 0.0 10.0 0.00 0.00 0.00 37 1011.6
20260504180516 72 140 0.0 8.0 0.00 0.00 0.00 37 1011.6
20260504175343 72 175 0.0 11.0 0.00 0.00 0.00 36 1011.7
20260504174842 72 136 0.0 11.0 0.00 0.00 0.00 38 1011.8
20260504174330 72 148 0.0 10.0 0.00 0.00 0.00 37 1011.8
20260504173813 71 194 0.0 10.0 0.00 0.00 0.00 37 1011.8
20260504172640 71 267 0.0 5.0 0.00 0.00 0.00 38 1011.9
20260504172148 71 219 0.0 9.0 0.00 0.00 0.00 35 1012.0
20260504171629 71 142 0.0 1.0 0.00 0.00 0.00 35 1012.0
20260504170458 71 212 0.0 5.0 0.00 0.00 0.00 38 1012.2
20260504150807 67 148 0.0 0.0 0.00 0.00 0.00 39 1013.6
20260504150254 66 164 0.0 9.0 0.00 0.00 0.00 38 1013.7
20260504140511 63 161 0.0 3.0 0.00 0.00 0.00 45 1013.7
20260504130426 55 148 0.0 6.0 0.00 0.00 0.00 56 1014.1
20260504110350 49 152 0.0 5.0 0.00 0.00 0.00 59 1014.4
20260504081524 48 171 0.0 0.0 0.00 0.00 0.00 54 1015.1
20260504081007 48 171 0.0 0.0 0.00 0.00 0.00 54 1015.1
20260504080505 48 172 0.0 0.0 0.00 0.00 0.00 54 1015.1
20260504070143 47 221 0.0 0.0 0.00 0.00 0.00 52 1015.2
20260504044657 47 288 0.0 0.0 0.00 0.00 0.00 55 1015.5
20260504044140 47 288 0.0 0.0 0.00 0.00 0.00 56 1015.5
20260504043647 47 288 0.0 0.0 0.00 0.00 0.00 56 1015.5
20260504043138 47 288 0.0 0.0 0.00 0.00 0.00 56 1015.5
20260504042636 47 289 0.0 0.0 0.00 0.00 0.00 54 1015.4
20260504042117 47 289 0.0 0.0 0.00 0.00 0.00 52 1015.4
20260504040944 47 289 0.0 0.0 0.00 0.00 0.00 53 1015.4
20260504040444 47 290 0.0 0.0 0.00 0.00 0.00 53 1015.3
20260504035941 47 290 0.0 0.0 0.00 0.00 0.00 54 1015.2
20260504035438 47 290 0.0 0.0 0.00 0.00 0.00 55 1015.2
20260504034928 48 290 0.0 0.0 0.00 0.00 0.00 57 1015.2
20260504034428 48 290 0.0 0.0 0.00 0.00 0.00 58 1015.1
20260504033912 48 290 0.0 0.0 0.00 0.00 0.00 58 1015.1